Sisseton, SD

11:04 PM CDT on April 28, 2017 (GMT -0500)
Sisseton

Weather History for K8D3 - July, 2015

Change the Weather History Date:

Friday, July 3, 2015

  Actual Average Record
Temperature  
Mean Temperature 70 °F 70 °F  
Max Temperature 83 °F 82 °F 105 °F (1949)
Min Temperature 56 °F 59 °F 45 °F (1969)
Degree Days  
Heating Degree Days 0 1  
Month to date heating degree days 0 3  
Since 1 June heating degree days 14 65  
Since 1 July heating degree days 0 3  
Cooling Degree Days 5 6  
Month to date cooling degree days 6 17  
Year to date cooling degree days 147 134  
Since 1 June cooling degree days 130 111  
Growing Degree Days 18 (Base 50)    
Moisture  
Dew Point 62 °F    
Average Humidity 72    
Maximum Humidity 93    
Minimum Humidity 51    
Precipitation  
Precipitation 0.00 in 0.11 in 3.17 in (1905)
Month to date precipitation 0.09 0.33  
Year to date precipitation 9.12 11.05  
Sea Level Pressure  
Sea Level Pressure 29.89 in    
Wind  
Wind Speed 6 mph (WNW)    
Max Wind Speed 17 mph    
Max Gust Speed 22 mph    
T = Trace of Precipitation, MM = Missing Value Source: NWS Daily Summary

Daily Weather History Graph

Daily Weather History Graph

Search for Another Location

Airport or City:

Trip Planner

Search our weather history database for the weather conditions in past years. The results will help you decide how hot, cold, wet, or windy it might be!

Date:

Astronomy

Jul. 03, 2015 Rise Set
Actual Time 5:43 AM CDT 9:20 PM CDT
Civil Twilight 5:05 AM CDT 9:58 PM CDT
Nautical Twilight 4:15 AM CDT 10:48 PM CDT
Astronomical Twilight 3:07 AM CDT 11:55 PM CDT
Moon 10:21 PM CDT (7/3) 7:40 AM CDT (7/3)
Length of Visible Light 16h 52m
Length of Day
15h 37m
Waning Gibbous, 97% of the Moon is Illuminated
Jul 3
Waning Gibbous
Jul 8
Last Quarter
Jul 15
New
Jul 23
First Quarter
Jul 31
Full

Hourly Weather History & Observations

Time (CDT) Temp. Heat Index Dew Point Humidity Pressure Visibility Wind Dir Wind Speed Gust Speed Precip Events Conditions
12:56 AM 59.0 °F - 55.0 °F 87% 29.93 in - SSW 5.8 mph - N/A   Unknown
1:56 AM 55.9 °F - 53.1 °F 90% 29.92 in - South 3.5 mph - N/A   Unknown
2:56 AM 64.0 °F - 55.0 °F 73% 29.90 in - West 6.9 mph - N/A   Unknown
3:56 AM 64.9 °F - 55.0 °F 70% 29.90 in - West 10.4 mph - N/A   Unknown
4:56 AM 64.9 °F - 60.1 °F 84% 29.91 in - West 9.2 mph - N/A   Unknown
5:56 AM 64.9 °F - 60.1 °F 84% 29.90 in - West 15.0 mph - N/A   Unknown
6:56 AM 66.0 °F - 61.0 °F 84% 29.91 in - West 12.7 mph - N/A   Unknown
7:56 AM 68.0 °F - 62.1 °F 81% 29.91 in - West 11.5 mph - N/A   Unknown
8:56 AM 71.1 °F - 63.0 °F 75% 29.91 in - West 8.1 mph - N/A   Unknown
9:56 AM 73.9 °F - 64.9 °F 73% 29.91 in - WNW 9.2 mph - N/A   Unknown
10:56 AM 77.0 °F - 66.0 °F 69% 29.90 in - NW 4.6 mph - N/A   Unknown
11:56 AM 78.1 °F - 66.0 °F 66% 29.91 in - North 5.8 mph - N/A   Unknown
12:56 PM 80.1 °F 81.9 °F 64.9 °F 60% 29.90 in - North 9.2 mph - N/A   Unknown
1:56 PM 80.1 °F 81.5 °F 63.0 °F 56% 29.90 in - North 6.9 mph - N/A   Unknown
2:56 PM 82.0 °F 83.0 °F 62.1 °F 51% 29.88 in - North 8.1 mph - N/A   Unknown
3:56 PM 82.0 °F 83.1 °F 63.0 °F 52% 29.88 in - North - - N/A   Unknown
4:56 PM 82.0 °F 83.1 °F 63.0 °F 52% 29.86 in - North 3.5 mph - N/A   Unknown
5:56 PM 82.0 °F 83.1 °F 63.0 °F 52% 29.86 in - North 3.5 mph - N/A   Unknown
6:56 PM 81.0 °F 82.5 °F 64.0 °F 56% 29.85 in - Calm Calm - N/A   Unknown
7:56 PM 80.1 °F 81.9 °F 64.9 °F 60% 29.85 in - Calm Calm - N/A   Unknown
8:56 PM 75.9 °F - 66.0 °F 71% 29.85 in - Calm Calm - N/A   Unknown
9:56 PM 73.9 °F - 66.0 °F 76% 29.85 in - Calm Calm - N/A   Unknown
10:56 PM 66.9 °F - 64.0 °F 90% 29.87 in - SSW 3.5 mph - N/A   Unknown
11:56 PM 66.0 °F - 64.0 °F 93% 29.87 in - Calm Calm - N/A   Unknown